Home   Weather   Churchill   Past weeks

Flag for Canada Past Weather in Churchill, Manitoba, Canada — Yesterday and Last 2 Weeks

34 °F


Feels Like: 29 °F
Forecast: 29 / 34 °F
Wind: 6 mph from Southeast

Location: Churchill

Current Time: Oct 24, 2016 at 8:27:27 PM

Latest Report: Oct 24, 2016 at 8:00 PM

Visibility: 15 mi

Pressure: 30.54 "Hg

Humidity: 75%

Dew Point: 27 °F

Location of ChurchillLocation

Past Weather in Churchill — Graph


Churchill Temperature Yesterday

Maximum temperature yesterday: 37 °F (at 3:04 PM)
Minimum temperature yesterday: 32 °F (at 12:00 AM)
Average temperature yesterday: 34 °F

High & Low Weather Summary for the Past Weeks

High39 °F (Oct 21, 2:00 PM)100% (Oct 16, 3:00 AM)30.54 "Hg (Oct 16, 3:00 AM)
Low21 °F (Oct 14, 1:00 AM)48% (Oct 11, 12:00 PM)29.68 "Hg (Oct 18, 5:00 AM)
Average31 °F83%29.99 "Hg
* Reported Oct 9 7:00 PM — Oct 24 7:00 PM, Churchill, Weather by CustomWeather, © 2016

Note: Actual official high and low records may vary slightly from our data, if they occured in-between our weather recording intervals... More about our weather records


Churchill Weather History for the Previous 24 Hours

Scroll right to see more
Time TempWeatherWind HumidityBarometerVisibility
7:00 PM
Mon, Oct 24
34 °FOvercast.3 mph75%30.54 "Hg15 mi
6:00 PM34 °FOvercast.3 mph81%30.53 "Hg15 mi
5:00 PM34 °FOvercast.6 mph75%30.52 "Hg15 mi
4:00 PM36 °FOvercast.3 mph65%30.52 "Hg15 mi
3:00 PM36 °FOvercast.3 mph70%30.51 "Hg15 mi
2:00 PM36 °FOvercast.5 mph75%30.50 "Hg15 mi
1:00 PM36 °FOvercast.6 mph75%30.48 "Hg15 mi
12:00 PM34 °FOvercast.5 mph87%30.47 "Hg15 mi
11:00 AM34 °FOvercast.5 mph87%30.45 "Hg15 mi
10:00 AM34 °FPartly sunny.2 mph87%30.44 "Hg15 mi
9:00 AM32 °FScattered showers. Partly sunny.3 mph93%30.42 "Hg15 mi
8:00 AM32 °FPassing clouds.5 mph100%30.41 "Hg15 mi
7:00 AM32 °FSnow flurries. Passing clouds.5 mph100%30.39 "Hg15 mi
6:00 AM32 °FSnow flurries. Partly cloudy.5 mph100%30.38 "Hg15 mi
5:00 AM32 °FOvercast.3 mph100%30.35 "Hg15 mi
4:00 AM34 °FOvercast.6 mph93%30.33 "Hg15 mi
3:00 AM34 °FOvercast.6 mph93%30.31 "Hg15 mi
2:00 AM34 °FOvercast.5 mph93%30.29 "Hg15 mi
1:00 AM34 °FOvercast.5 mph93%30.27 "Hg15 mi
12:00 AM34 °FLight snow. Mostly cloudy.10 mph93%30.25 "Hg5 mi
11:00 PM
Sun, Oct 23
34 °FPartly cloudy.10 mph93%30.23 "Hg15 mi
10:46 PM32 °FOvercast.6 mph100%30.22 "Hg15 mi
10:00 PM34 °FLight rain. Overcast.9 mph93%30.21 "Hg10 mi
9:00 PM34 °FLight snow. Mostly cloudy.12 mph93%30.19 "Hg5 mi
8:45 PM34 °FLight snow. Mostly cloudy.13 mph100%30.19 "Hg10 mi
8:00 PM34 °FLight rain. Low clouds.10 mph100%30.17 "Hg10 mi
Weather by CustomWeather, © 2016

See weather overviewHow to use our weather pages